User: anonymous   Login
Location: Bakov nad Jizerou
(50.4784°N, 14.9394°E)
Time: 19:49:36
(UTC+00:00)
Language:

Cosmos 389 Rocket - Orbit

View from above orbital plane
View from above orbital plane
View from above satellite
View from above satellite

Ground track
Ground track

The orbit data is extracted from the following two-line orbital elements,

1 04814U 70113B   21268.23414678  .00003209  00000-0  87050-4 0  9991
2 04814  81.1411 317.9491 0024463 108.5800 251.8100 15.36969182774487
Epoch (UTC): 25 September 2021 05:37:10
Eccentricity: 0.0024463
inclination: 81.1411°
perigee height: 438 km
apogee height: 472 km
right ascension of ascending node: 317.9491°
argument of perigee: 108.5800°
revolutions per day: 15.36969182
mean anomaly at epoch: 251.8100°
orbit number at epoch: 77448

The dashed part of the orbit path shows where the satellite is in the earth's shadow,  

DLR